EW8926 Weather Reports


Display with metric or nautical units.
time (UTC)temp
F
wind
direction
speed
MPH
gust
MPH
rain 1hr
in
rain 24hr
in
rain mn
in
humidity
%
barometer
mb
20260906203104 78 303 0.0 0.0 0.00 0.00 0.00 64 1022.7
20260906202604 78 303 0.0 0.0 0.00 0.00 0.00 64 1022.7
20260906202104 79 303 0.0 2.0 0.00 0.00 0.00 64 1022.6
20260906201604 79 303 0.0 2.0 0.00 0.00 0.00 63 1022.6
20260906200604 80 303 0.0 0.0 0.00 0.00 0.00 61 1022.6
20260906200104 80 303 0.0 0.0 0.00 0.00 0.00 60 1022.6
20260906195604 80 303 0.0 0.0 0.00 0.00 0.00 60 1022.6
20260906194604 81 303 0.0 0.0 0.00 0.00 0.00 59 1022.5
20260906194104 81 303 1.0 1.0 0.00 0.00 0.00 58 1022.5
20260906193104 82 303 2.0 2.0 0.00 0.00 0.00 58 1022.4
20260906192604 82 303 2.0 3.0 0.00 0.00 0.00 57 1022.4
20260906192104 82 302 2.0 5.0 0.00 0.00 0.00 57 1022.2
20260906191604 82 307 2.0 3.0 0.00 0.00 0.00 56 1022.2
20260906191104 82 290 2.0 5.0 0.00 0.00 0.00 56 1022.2
20260906190604 82 297 2.0 5.0 0.00 0.00 0.00 56 1022.1
20260906190104 83 318 2.0 5.0 0.00 0.00 0.00 56 1022.1
20260906185604 83 322 2.0 5.0 0.00 0.00 0.00 55 1022.1
20260906185104 83 301 2.0 3.0 0.00 0.00 0.00 55 1021.9
20260906184604 83 301 2.0 3.0 0.00 0.00 0.00 54 1021.9
20260906183604 84 327 2.0 3.0 0.00 0.00 0.00 52 1021.8
20260906183104 84 330 2.0 3.0 0.00 0.00 0.00 52 1021.8
20260906182104 85 318 1.0 2.0 0.00 0.00 0.00 51 1021.7
20260906181103 85 338 2.0 3.0 0.00 0.00 0.00 50 1021.7
20260906180604 86 314 2.0 3.0 0.00 0.00 0.00 49 1021.6
20260906180103 86 313 2.0 3.0 0.00 0.00 0.00 49 1021.6
20260906175604 86 299 2.0 5.0 0.00 0.00 0.00 48 1021.6
20260906174604 87 304 2.0 3.0 0.00 0.00 0.00 48 1021.5
20260906174104 87 315 2.0 5.0 0.00 0.00 0.00 48 1021.5
20260906173604 87 271 2.0 5.0 0.00 0.00 0.00 47 1021.5
20260906172604 88 339 2.0 5.0 0.00 0.00 0.00 47 1021.5
20260906172103 88 292 2.0 5.0 0.00 0.00 0.00 47 1021.5
20260906171604 88 266 2.0 2.0 0.00 0.00 0.00 46 1021.5
20260906170603 89 322 2.0 6.0 0.00 0.00 0.00 46 1021.4
20260906170106 89 330 2.0 5.0 0.00 0.00 0.00 46 1021.4
20260906165604 89 295 2.0 5.0 0.00 0.00 0.00 45 1021.4
20260906165103 89 349 2.0 6.0 0.00 0.00 0.00 45 1021.3
20260906164604 89 322 2.0 6.0 0.00 0.00 0.00 45 1021.3
20260906164104 89 307 2.0 6.0 0.00 0.00 0.00 45 1021.3
20260906163104 90 314 2.0 5.0 0.00 0.00 0.00 44 1021.3
20260906162604 90 292 2.0 8.0 0.00 0.00 0.00 44 1021.3
20260906162104 90 49 2.0 6.0 0.00 0.00 0.00 43 1021.3
20260906161604 91 264 2.0 5.0 0.00 0.00 0.00 43 1021.3
20260906160604 92 7 2.0 5.0 0.00 0.00 0.00 42 1021.2
20260906160103 92 45 2.0 6.0 0.00 0.00 0.00 42 1021.2
20260906155604 92 330 2.0 5.0 0.00 0.00 0.00 41 1021.2
20260906155103 93 305 2.0 7.0 0.00 0.00 0.00 41 1021.2
20260906154604 93 332 2.0 5.0 0.00 0.00 0.00 41 1021.2
20260906154104 93 308 2.0 6.0 0.00 0.00 0.00 41 1021.2
20260906153603 93 334 2.0 3.0 0.00 0.00 0.00 42 1021.2
20260906153104 92 177 2.0 5.0 0.00 0.00 0.00 41 1021.2
20260906152604 93 137 2.0 6.0 0.00 0.00 0.00 40 1021.2
20260906152104 93 122 2.0 6.0 0.00 0.00 0.00 40 1021.3
20260906151604 93 347 2.0 7.0 0.00 0.00 0.00 41 1021.3
20260906151104 94 4 2.0 6.0 0.00 0.00 0.00 41 1021.3
20260906150604 94 273 1.0 7.0 0.00 0.00 0.00 41 1021.4
20260906150104 93 106 2.0 2.0 0.00 0.00 0.00 40 1021.4
20260906145604 93 139 2.0 5.0 0.00 0.00 0.00 41 1021.4
20260906145104 93 175 2.0 3.0 0.00 0.00 0.00 41 1021.4
20260906144604 93 146 2.0 5.0 0.00 0.00 0.00 42 1021.4
20260906143604 93 295 2.0 7.0 0.00 0.00 0.00 42 1021.5
20260906143103 93 311 2.0 5.0 0.00 0.00 0.00 42 1021.5
20260906142604 93 117 1.0 5.0 0.00 0.00 0.00 42 1021.5
20260906142104 93 57 2.0 3.0 0.00 0.00 0.00 43 1021.7
20260906141604 92 57 2.0 3.0 0.00 0.00 0.00 44 1021.7
20260906141104 92 299 2.0 5.0 0.00 0.00 0.00 43 1021.7
20260906140604 92 259 2.0 5.0 0.00 0.00 0.00 44 1021.8
20260906135604 92 339 2.0 6.0 0.00 0.00 0.00 45 1021.8
20260906135104 92 6 2.0 7.0 0.00 0.00 0.00 45 1021.9
20260906134104 91 35 2.0 5.0 0.00 0.00 0.00 46 1021.9
20260906133604 91 76 2.0 6.0 0.00 0.00 0.00 46 1022.0
20260906133103 92 127 2.0 7.0 0.00 0.00 0.00 46 1022.0
20260906132604 91 227 2.0 6.0 0.00 0.00 0.00 46 1022.0
20260906132104 92 14 2.0 6.0 0.00 0.00 0.00 47 1022.1
20260906131604 91 48 2.0 8.0 0.00 0.00 0.00 47 1022.1
20260906131104 91 41 2.0 6.0 0.00 0.00 0.00 47 1022.1
20260906130104 91 355 2.0 5.0 0.00 0.00 0.00 48 1022.3
20260906125603 91 87 2.0 6.0 0.00 0.00 0.00 48 1022.3
20260906125104 90 117 2.0 6.0 0.00 0.00 0.00 48 1022.4
20260906124604 90 89 2.0 7.0 0.00 0.00 0.00 48 1022.4
20260906124104 89 26 2.0 5.0 0.00 0.00 0.00 50 1022.4
20260906123604 89 115 2.0 5.0 0.00 0.00 0.00 49 1022.4
20260906123103 89 121 2.0 6.0 0.00 0.00 0.00 49 1022.4
20260906122603 89 114 2.0 5.0 0.00 0.00 0.00 49 1022.4
20260906122104 89 114 2.0 5.0 0.00 0.00 0.00 49 1022.6
20260906121604 89 118 2.0 8.0 0.00 0.00 0.00 48 1022.6
20260906121104 89 96 2.0 6.0 0.00 0.00 0.00 48 1022.6
20260906120604 89 32 2.0 3.0 0.00 0.00 0.00 50 1022.7
20260906115603 88 81 2.0 5.0 0.00 0.00 0.00 51 1022.7
20260906115104 87 271 3.0 7.0 0.00 0.00 0.00 50 1022.8
20260906114604 87 111 3.0 5.0 0.00 0.00 0.00 50 1022.8
20260906114104 87 315 2.0 6.0 0.00 0.00 0.00 50 1022.8
20260906113604 88 111 2.0 6.0 0.00 0.00 0.00 50 1022.8
20260906112604 87 37 2.0 5.0 0.00 0.00 0.00 52 1022.8
20260906112104 87 42 2.0 6.0 0.00 0.00 0.00 52 1022.8
20260906111604 86 59 2.0 5.0 0.00 0.00 0.00 52 1022.8
20260906111104 86 122 3.0 5.0 0.00 0.00 0.00 53 1022.8
20260906110604 86 291 3.0 5.0 0.00 0.00 0.00 53 1022.8
20260906110104 86 305 2.0 6.0 0.00 0.00 0.00 53 1022.8
20260906105604 86 305 2.0 6.0 0.00 0.00 0.00 52 1022.8
20260906104604 85 206 2.0 3.0 0.00 0.00 0.00 54 1022.9
20260906102104 85 104 2.0 5.0 0.00 0.00 0.00 54 1023.1
20260906101604 85 338 2.0 5.0 0.00 0.00 0.00 55 1023.1
20260906101104 84 259 2.0 5.0 0.00 0.00 0.00 55 1023.1
20260906100604 84 183 2.0 6.0 0.00 0.00 0.00 55 1023.2
20260906100104 84 274 2.0 5.0 0.00 0.00 0.00 57 1023.2
20260906095604 84 67 2.0 5.0 0.00 0.00 0.00 55 1023.2
20260906094104 83 292 2.0 2.0 0.00 0.00 0.00 57 1023.3
20260906093604 83 279 2.0 5.0 0.00 0.00 0.00 56 1023.4
20260906092604 82 299 2.0 3.0 0.00 0.00 0.00 58 1023.4
20260906092104 82 294 2.0 5.0 0.00 0.00 0.00 58 1023.4
20260906091604 82 295 2.0 5.0 0.00 0.00 0.00 57 1023.4
20260906091104 82 339 2.0 3.0 0.00 0.00 0.00 57 1023.4
20260906090604 82 306 2.0 5.0 0.00 0.00 0.00 57 1023.4
20260906090104 83 326 2.0 5.0 0.00 0.00 0.00 58 1023.4
20260906085604 83 283 2.0 5.0 0.00 0.00 0.00 58 1023.4
20260906085103 82 48 2.0 5.0 0.00 0.00 0.00 58 1023.4
20260906084604 82 293 2.0 3.0 0.00 0.00 0.00 58 1023.4
20260906084104 82 282 2.0 3.0 0.00 0.00 0.00 58 1023.4
20260906083604 81 278 2.0 5.0 0.00 0.00 0.00 59 1023.4
20260906083104 81 307 2.0 2.0 0.00 0.00 0.00 60 1023.4
20260906082604 80 307 2.0 5.0 0.00 0.00 0.00 60 1023.4
20260906082104 80 151 2.0 5.0 0.00 0.00 0.00 60 1023.3
20260906081604 79 264 2.0 5.0 0.00 0.00 0.00 61 1023.3
20260906081104 79 220 2.0 5.0 0.00 0.00 0.00 62 1023.3
20260906080604 79 297 2.0 5.0 0.00 0.00 0.00 63 1023.2
20260906080104 78 297 2.0 5.0 0.00 0.00 0.00 63 1023.2
20260906075604 78 297 2.0 5.0 0.00 0.00 0.00 63 1023.2
20260906075104 78 299 2.0 6.0 0.00 0.00 0.00 63 1023.0
20260906074604 78 292 1.0 6.0 0.00 0.00 0.00 63 1023.0
20260906074104 78 258 2.0 2.0 0.00 0.00 0.00 64 1023.0
20260906073604 78 236 2.0 3.0 0.00 0.00 0.00 64 1022.9
20260906073104 77 177 2.0 2.0 0.00 0.00 0.00 65 1022.9
20260906072604 77 194 2.0 5.0 0.00 0.00 0.00 66 1022.9
20260906072104 77 297 1.0 5.0 0.00 0.00 0.00 66 1022.7
20260906071604 77 300 1.0 5.0 0.00 0.00 0.00 66 1022.7
20260906071104 77 292 1.0 3.0 0.00 0.00 0.00 66 1022.7
20260906070604 76 129 1.0 2.0 0.00 0.00 0.00 68 1022.6
20260906070105 76 111 1.0 2.0 0.00 0.00 0.00 69 1022.6
20260906064604 74 157 1.0 3.0 0.00 0.00 0.00 72 1022.5
20260906064104 73 111 0.0 2.0 0.00 0.00 0.00 75 1022.5
20260906063604 72 110 0.0 2.0 0.00 0.00 0.00 77 1022.4
20260906063104 71 103 1.0 2.0 0.00 0.00 0.00 79 1022.4
20260906062604 70 104 1.0 2.0 0.00 0.00 0.00 82 1022.4
20260906062104 70 104 2.0 2.0 0.00 0.00 0.00 85 1022.3
20260906061603 69 104 2.0 2.0 0.00 0.00 0.00 87 1022.3
20260906061104 69 104 1.0 2.0 0.00 0.00 0.00 88 1022.3
20260906060604 69 104 1.0 2.0 0.00 0.00 0.00 89 1022.1
20260906060104 68 104 2.0 2.0 0.00 0.00 0.00 90 1022.1
20260906055604 68 104 2.0 2.0 0.00 0.00 0.00 90 1022.1
20260906055104 67 104 2.0 2.0 0.00 0.00 0.00 91 1021.8
20260906054104 67 104 2.0 2.0 0.00 0.00 0.00 92 1021.8
20260906053604 67 104 2.0 5.0 0.00 0.00 0.00 91 1021.5
20260906053103 67 114 1.0 3.0 0.00 0.00 0.00 92 1021.5
20260906052604 66 119 1.0 2.0 0.00 0.00 0.00 92 1021.5
20260906052104 66 119 2.0 2.0 0.00 0.00 0.00 91 1021.5
20260906051604 66 119 2.0 2.0 0.00 0.00 0.00 90 1021.5
20260906051104 67 119 1.0 2.0 0.00 0.00 0.00 90 1021.5
20260906050603 67 119 0.0 2.0 0.00 0.00 0.00 90 1021.2
20260906050104 67 119 0.0 2.0 0.00 0.00 0.00 90 1021.2
20260906045104 67 119 0.0 0.0 0.00 0.00 0.00 90 1021.0
20260906044104 67 119 0.0 0.0 0.00 0.00 0.00 90 1021.0
20260906042604 67 119 0.0 0.0 0.00 0.00 0.00 90 1021.0
20260906042104 67 119 0.0 2.0 0.00 0.00 0.00 90 1020.9
20260906041604 68 119 0.0 0.0 0.00 0.00 0.00 89 1020.9
20260906041103 68 119 0.0 1.0 0.00 0.00 0.00 89 1020.9
20260906040604 68 119 0.0 0.0 0.00 0.00 0.00 89 1020.8
20260906035604 68 119 0.0 0.0 0.00 0.00 0.00 88 1020.8
20260906035104 68 119 0.0 2.0 0.00 0.00 0.00 88 1020.6
20260906034603 68 119 0.0 0.0 0.00 0.00 0.00 88 1020.6
20260906034104 69 119 0.0 0.0 0.00 0.00 0.00 88 1020.6
20260906033604 69 119 0.0 2.0 0.00 0.00 0.00 88 1020.6
20260906033104 69 119 0.0 0.0 0.00 0.00 0.00 88 1020.6
20260906032604 69 119 0.0 0.0 0.00 0.00 0.00 88 1020.6
20260906032104 69 119 0.0 0.0 0.00 0.00 0.00 88 1020.4
20260906031604 69 119 0.0 0.0 0.00 0.00 0.00 88 1020.4
20260906030603 69 119 0.0 2.0 0.00 0.00 0.00 89 1020.4
20260906030104 69 119 1.0 2.0 0.00 0.00 0.00 89 1020.4
20260906025603 69 119 1.0 2.0 0.00 0.00 0.00 89 1020.4
20260906025104 69 119 2.0 2.0 0.00 0.00 0.00 89 1020.3
20260906024604 69 119 2.0 3.0 0.00 0.00 0.00 90 1020.3
20260906024103 69 117 2.0 5.0 0.00 0.00 0.00 90 1020.3
20260906023604 69 124 2.0 5.0 0.00 0.00 0.00 90 1020.2
20260906023104 68 101 2.0 2.0 0.00 0.00 0.00 90 1020.2
20260906022604 68 108 2.0 5.0 0.00 0.00 0.00 90 1020.2
20260906022104 68 114 1.0 5.0 0.00 0.00 0.00 90 1020.2
20260906021604 68 120 1.0 2.0 0.00 0.00 0.00 90 1020.2
20260906021104 69 120 0.0 2.0 0.00 0.00 0.00 90 1020.2
20260906020604 69 120 0.0 2.0 0.00 0.00 0.00 90 1020.3
20260906020104 69 120 0.0 2.0 0.00 0.00 0.00 90 1020.3
20260906015603 69 120 0.0 1.0 0.00 0.00 0.00 90 1020.3
20260906014104 69 120 1.0 2.0 0.00 0.00 0.00 89 1020.3
20260906013603 69 120 1.0 2.0 0.00 0.00 0.00 89 1020.3
20260906013104 69 120 1.0 2.0 0.00 0.00 0.00 88 1020.3
20260906012604 69 120 1.0 2.0 0.00 0.00 0.00 88 1020.3
20260906012104 70 120 1.0 2.0 0.00 0.00 0.00 88 1020.2
20260906011604 70 120 1.0 2.0 0.00 0.00 0.00 87 1020.2
20260906011104 70 120 0.0 3.0 0.00 0.00 0.00 86 1020.2
20260906010604 70 121 0.0 2.0 0.00 0.00 0.00 86 1020.1
20260906010104 70 121 0.0 1.0 0.00 0.00 0.00 86 1020.1
20260906005104 70 121 0.0 0.0 0.00 0.00 0.00 87 1020.0
20260906004604 71 121 0.0 0.0 0.00 0.00 0.00 86 1020.0
20260906004104 71 121 0.0 0.0 0.00 0.00 0.00 86 1020.0
20260906003604 71 121 0.0 0.0 0.00 0.00 0.00 86 1020.1
20260906003104 71 121 0.0 0.0 0.00 0.00 0.00 86 1020.1
20260906002604 71 121 0.0 0.0 0.00 0.00 0.00 85 1020.1
20260906002104 71 121 0.0 0.0 0.00 0.00 0.00 85 1020.2
20260906001603 71 121 0.0 0.0 0.00 0.00 0.00 84 1020.2
20260906001103 71 121 0.0 0.0 0.00 0.00 0.00 84 1020.2
20260906000104 72 121 2.0 0.0 0.00 0.00 0.00 83 1020.0
20260905235604 72 121 2.0 2.0 0.00 0.00 0.00 83 1020.0
20260905235104 72 121 1.0 2.0 0.00 0.00 0.00 83 1020.0
20260905234604 72 121 1.0 3.0 0.00 0.00 0.00 82 1020.0
20260905234104 73 121 1.0 3.0 0.00 0.00 0.00 81 1020.0
20260905233604 73 250 1.0 2.0 0.00 0.00 0.00 81 1020.0
20260905233104 73 250 0.0 2.0 0.00 0.00 0.00 81 1020.0
20260905232603 73 249 0.0 2.0 0.00 0.00 0.00 81 1020.0
20260905232103 73 249 1.0 2.0 0.00 0.00 0.00 82 1020.2
20260905231604 73 249 1.0 2.0 0.00 0.00 0.00 83 1020.2
20260905231104 73 260 0.0 3.0 0.00 0.00 0.00 83 1020.2
20260905230604 73 152 0.0 2.0 0.00 0.00 0.00 83 1020.0
20260905230103 73 152 0.0 0.0 0.00 0.00 0.00 84 1020.0
20260905225604 73 152 0.0 0.0 0.00 0.00 0.00 83 1020.0
20260905225104 74 152 0.0 0.0 0.00 0.00 0.00 83 1019.9
20260905224104 74 152 0.0 1.0 0.00 0.00 0.00 82 1019.9
20260905223604 74 152 0.0 2.0 0.00 0.00 0.00 81 1019.7
20260905223104 74 152 0.0 1.0 0.00 0.00 0.00 81 1019.7
20260905222604 75 152 0.0 2.0 0.00 0.00 0.00 80 1019.7
20260905222104 75 152 0.0 0.0 0.00 0.00 0.00 80 1019.7
20260905221604 75 152 0.0 0.0 0.00 0.00 0.00 80 1019.7
20260905221104 75 152 0.0 1.0 0.00 0.00 0.00 79 1019.7
20260905220604 76 152 0.0 1.0 0.00 0.00 0.00 79 1019.4
20260905220104 76 152 0.0 1.0 0.00 0.00 0.00 78 1019.4
20260905215104 77 152 1.0 0.0 0.00 0.00 0.00 76 1019.4
20260905214604 77 152 1.0 0.0 0.00 0.00 0.00 76 1019.4
20260905214103 77 152 1.0 2.0 0.00 0.00 0.00 76 1019.4
20260905213604 77 152 1.0 3.0 0.00 0.00 0.00 76 1019.2
20260905213104 77 145 1.0 2.0 0.00 0.00 0.00 77 1019.2
20260905212604 77 160 1.0 2.0 0.00 0.00 0.00 77 1019.2
20260905212103 77 169 2.0 2.0 0.00 0.00 0.00 78 1018.9
20260905211604 77 160 2.0 2.0 0.00 0.00 0.00 78 1018.9
20260905211104 77 154 2.0 3.0 0.00 0.00 0.00 78 1018.9
20260905210604 78 135 2.0 5.0 0.00 0.00 0.00 78 1019.0
20260905210104 78 137 2.0 2.0 0.00 0.00 0.00 78 1019.0
20260905205604 78 137 2.0 2.0 0.00 0.00 0.00 78 1019.0
20260905205104 78 137 2.0 2.0 0.00 0.00 0.00 78 1019.0
20260905204604 78 132 2.0 6.0 0.00 0.00 0.00 78 1019.0
20260905204104 78 119 2.0 5.0 0.00 0.00 0.00 78 1019.0
20260905203604 78 133 2.0 6.0 0.00 0.00 0.00 77 1018.9